Wind_Speed
31 31 31 30 29 27 25 24 24 24 24 24 24 24 24 25 25 25 25 25 25 26 27 27 27 26 26 26 25 24 26 28 27 26 27 27 27 28 28 29 31 30 30 31 32 33 34 35 38 41 42 43
32 32 32 32 30 29 28 26 25 25 25 25 24 24 24 24 25 24 24 25 26 26 27 28 28 26 26 25 25 25 26 27 27 27 27 27 27 27 28 29 29 29 28 29 31 32 33 34 35 39 41 42
31 32 33 32 31 30 30 28 26 26 25 25 25 24 24 24 24 24 25 26 27 28 28 29 30 28 26 25 25 25 27 28 27 27 28 28 27 27 28 28 28 28 28 28 29 31 32 33 33 35 38 40
29 31 32 33 34 33 32 31 29 28 27 26 26 25 25 25 25 25 26 27 28 29 29 30 30 29 26 25 25 25 26 27 28 27 28 28 28 27 27 27 27 27 27 27 28 30 31 32 32 33 36 37
29 31 32 34 35 36 35 34 33 32 30 29 28 28 27 27 26 26 26 27 28 29 29 29 30 29 27 26 26 26 26 27 27 27 27 28 29 29 28 27 27 27 27 27 28 30 30 31 31 32 34 35
30 32 33 33 34 36 37 36 36 35 34 32 30 29 28 28 27 27 27 28 28 29 30 30 30 30 29 28 27 26 26 27 28 28 27 28 29 29 29 27 27 28 28 27 28 30 30 30 30 30 32 34
31 32 32 33 34 35 36 37 37 37 36 35 32 31 29 29 29 28 28 28 29 29 30 30 31 31 30 29 28 28 28 28 29 30 30 30 29 29 30 29 27 28 29 29 28 29 30 30 30 30 31 33
30 32 32 32 33 34 35 36 37 37 37 36 35 33 31 30 30 29 29 29 29 30 29 29 29 30 30 29 28 29 29 28 28 29 30 30 30 29 29 30 29 28 29 31 30 29 30 31 30 30 31 32
31 32 32 32 33 33 34 35 36 36 37 37 36 35 33 31 30 29 29 29 30 30 29 29 28 28 27 27 28 28 27 25 26 28 27 27 29 28 28 30 30 29 28 30 32 31 31 32 31 30 31 32
32 33 33 33 33 33 34 34 35 36 36 37 37 36 34 32 31 30 29 29 30 30 29 28 27 26 25 26 27 27 25 24 25 27 26 25 26 28 27 28 30 31 30 30 31 32 31 32 32 30 30 32
31 33 34 34 34 34 34 34 35 36 36 36 37 37 36 33 31 30 29 29 30 30 29 28 27 26 25 26 27 25 24 24 25 25 25 24 24 27 27 27 28 30 31 32 32 32 32 32 33 32 30 31
32 34 35 35 35 35 35 35 36 36 36 36 37 38 37 35 33 31 30 29 29 30 29 28 27 26 26 27 26 24 24 24 24 23 23 24 24 25 25 25 27 28 30 32 34 34 33 32 33 33 31 31
34 35 36 37 36 36 36 36 36 36 36 37 37 38 38 36 33 32 30 29 29 30 29 28 28 27 26 26 25 25 25 23 23 23 23 23 24 23 24 24 24 26 28 30 32 34 35 33 32 33 33 31
36 37 38 38 38 38 38 37 36 36 36 37 37 38 38 36 34 32 30 30 29 29 29 28 27 27 26 26 26 25 25 24 23 23 24 24 25 25 25 25 25 25 26 27 29 32 34 35 33 33 33 32
38 38 39 39 40 40 40 39 37 37 37 37 37 38 39 37 34 32 31 30 29 29 29 28 27 27 26 26 26 25 24 25 24 24 25 26 26 26 27 26 25 25 25 26 27 28 31 35 34 33 33 32
39 39 40 41 41 41 41 41 39 37 37 37 37 39 39 38 35 33 31 30 29 29 29 28 27 27 27 27 27 26 25 25 26 26 26 24 24 25 26 26 25 25 25 24 25 26 28 33 35 33 32 32
41 41 42 42 42 43 43 42 41 39 38 37 38 39 39 38 36 34 31 30 29 29 29 28 28 27 28 27 27 27 26 26 26 25 24 22 23 24 23 23 23 23 23 22 24 26 28 31 34 33 31 30
42 43 43 44 44 44 44 44 42 40 39 38 38 38 39 38 37 35 32 30 29 29 29 28 28 27 27 26 26 26 26 26 24 23 24 24 24 23 20 21 22 21 22 22 23 26 28 30 32 32 31 30
42 43 45 45 45 46 46 45 44 42 41 40 39 38 38 38 37 35 33 31 30 29 29 28 28 27 26 26 25 26 26 25 24 24 25 24 24 22 22 23 21 20 21 22 23 24 26 30 32 31 30 29
42 43 45 46 46 46 46 46 45 44 42 40 39 39 38 38 37 36 33 32 30 29 28 28 28 27 26 26 26 26 25 25 24 24 24 23 23 23 23 22 21 21 21 21 22 22 26 31 32 30 28 29
41 42 44 46 46 47 47 46 46 45 43 41 40 39 39 38 37 36 34 32 31 30 28 28 28 28 27 27 26 26 25 24 23 22 23 23 22 23 22 21 21 21 21 21 22 24 29 31 28 26 26 26
41 41 42 44 45 46 46 46 46 45 44 43 41 40 39 38 37 36 34 33 32 30 29 29 29 28 28 27 26 25 23 23 22 21 21 21 21 21 20 21 21 21 21 21 24 27 29 27 23 22 22 23
43 43 43 43 44 44 45 45 45 45 45 43 42 41 40 38 37 36 34 34 32 31 30 29 29 28 28 28 26 24 22 21 21 20 20 20 20 19 19 19 19 19 19 20 24 26 25 24 21 19 18 20
42 44 45 45 45 44 44 44 45 45 45 44 44 43 41 39 38 36 34 34 33 31 30 29 29 28 28 27 26 24 21 20 19 18 18 18 18 18 17 16 15 15 16 19 23 22 20 22 21 17 16 16
39 41 43 45 46 46 45 45 46 46 46 46 45 44 42 41 39 36 34 34 33 32 30 29 28 28 28 27 25 23 20 18 17 16 16 15 14 14 13 12 11 12 15 18 20 17 18 20 18 14 14 14
36 38 40 42 45 45 46 46 46 46 47 47 46 46 44 42 40 37 34 34 33 32 31 30 28 28 27 26 25 23 20 18 16 15 13 12 11 10 11 11 11 12 15 15 15 17 20 18 12 10 12 11
34 35 37 40 42 43 44 44 45 46 46 47 47 47 46 44 40 37 35 34 33 32 31 30 29 28 27 26 25 23 20 17 16 14 13 11 10 9 10 11 11 13 15 16 15 15 15 13 11 10 8 6
33 34 35 37 40 41 43 44 45 47 48 49 49 49 48 45 42 38 35 34 33 32 31 30 29 28 28 27 26 24 21 18 17 15 14 12 11 10 11 11 10 11 15 18 16 11 10 12 11 7 5 10
33 34 34 35 38 40 41 44 46 49 51 51 51 51 49 46 44 40 36 34 33 32 31 30 29 28 28 28 27 25 23 20 18 17 16 14 13 12 12 12 11 12 15 17 16 12 10 9 8 6 10 16
32 33 34 34 36 38 40 43 45 48 50 51 52 51 49 47 45 42 38 35 33 32 31 31 30 28 28 28 28 27 25 22 20 19 18 16 15 13 13 14 14 14 13 14 17 17 14 11 10 12 13 13
32 33 33 33 35 37 38 41 43 45 46 48 49 49 48 46 44 42 39 36 34 33 31 31 30 29 29 29 29 28 27 25 22 20 19 18 17 15 15 15 15 15 13 13 14 15 16 15 14 14 13 11
Wind_Direction
355 355 354 354 350 344 339 335 334 333 330 327 324 324 322 322 322 323 324 324 324 324 325 328 330 329 328 328 327 326 324 325 329 326 322 321 319 316 313 310 310 309 307 305 304 301 297 292 285 282 281 280
348 351 352 352 351 350 346 341 337 334 333 330 327 324 323 322 321 321 322 323 323 325 329 330 331 331 330 328 327 325 324 325 328 327 325 324 322 318 316 314 312 311 307 303 302 301 298 294 288 283 281 281
341 345 347 347 348 351 350 347 342 337 334 331 328 324 323 322 320 321 322 324 326 327 331 332 332 333 331 329 327 325 324 324 327 327 325 324 323 321 318 317 315 311 307 303 299 298 297 296 293 286 282 281
335 338 341 343 346 348 348 349 347 341 335 332 329 326 325 323 322 323 323 325 326 327 330 331 331 332 332 329 326 325 323 323 325 326 325 323 323 321 319 318 316 313 308 303 298 295 294 294 294 290 284 280
331 334 338 341 344 345 345 347 349 347 340 336 332 329 328 326 325 325 323 324 323 324 327 328 328 330 331 330 327 324 323 322 322 323 325 324 323 322 319 318 315 313 310 304 298 294 293 291 290 290 287 282
328 331 335 338 339 341 342 344 346 348 345 339 333 330 329 327 326 323 321 320 320 321 323 326 328 330 331 329 325 323 323 322 320 320 322 323 323 322 319 318 315 311 310 305 299 294 292 291 288 286 286 284
323 327 331 333 334 337 338 340 342 344 344 342 336 331 329 328 325 320 318 318 318 320 323 328 329 329 329 327 326 325 324 323 322 322 323 323 322 323 321 318 315 311 308 305 301 296 293 292 289 285 282 281
318 322 326 328 330 332 334 337 338 340 342 341 338 333 330 327 323 318 317 316 317 319 323 327 327 327 327 327 327 326 325 325 323 324 325 324 324 326 324 320 316 311 307 305 303 299 295 293 290 286 282 278
315 318 321 323 325 328 330 333 334 336 338 339 339 335 329 325 323 320 317 316 316 318 321 324 325 326 325 324 324 324 324 324 321 321 324 324 323 324 323 319 315 312 307 303 303 301 298 295 293 288 283 279
311 314 316 318 321 324 325 328 330 332 334 336 337 335 330 326 325 323 319 315 315 316 318 322 323 322 320 318 320 321 321 319 318 319 321 321 320 320 322 319 315 313 308 303 301 300 299 297 295 291 286 282
308 310 312 314 317 319 321 324 326 328 330 332 334 334 332 328 326 324 319 315 314 314 316 319 319 318 316 316 317 317 316 315 316 316 317 317 317 317 319 319 315 313 310 305 302 300 299 297 297 294 289 284
307 307 308 311 313 316 318 320 323 324 327 328 331 333 332 329 327 325 320 315 313 312 313 315 315 315 313 315 315 312 312 313 314 313 313 313 313 313 315 316 315 313 309 307 305 302 300 298 297 296 292 286
305 305 305 308 310 312 313 316 319 320 323 326 328 330 330 330 327 325 321 315 312 310 311 312 313 313 312 313 311 309 310 309 309 308 307 309 309 308 309 311 312 309 306 306 306 304 302 299 297 296 295 289
302 302 303 305 307 308 310 312 315 317 320 323 325 326 327 329 326 324 322 316 312 309 309 309 310 311 310 309 307 306 305 304 303 303 305 306 306 305 305 308 310 306 304 304 304 304 303 301 299 296 297 293
299 300 300 302 304 305 306 308 311 313 316 319 321 322 324 326 326 323 321 317 311 308 307 307 308 307 305 304 304 302 301 301 300 301 304 305 306 306 306 309 311 306 303 301 300 302 301 302 301 297 298 297
297 297 298 299 301 302 303 304 307 309 311 314 316 318 320 324 325 323 320 317 312 308 307 306 305 303 303 303 302 300 297 296 299 303 306 307 307 306 305 307 308 305 303 299 297 298 299 301 302 299 300 299
296 297 297 297 298 299 300 301 303 305 307 310 312 314 317 320 323 322 319 317 313 308 305 304 303 301 302 301 299 298 296 296 301 305 305 304 303 300 300 302 302 301 299 296 295 296 297 300 301 301 301 299
295 295 295 296 296 296 297 298 300 302 304 305 308 310 313 317 321 322 319 317 313 309 305 302 301 299 299 298 296 295 294 297 299 298 297 299 300 296 294 295 296 295 293 292 293 295 296 297 301 303 302 298
294 293 292 293 294 294 294 296 297 298 300 301 303 306 310 313 317 320 318 316 313 310 305 301 299 297 296 294 291 291 292 294 294 294 295 297 297 293 290 293 293 289 290 291 292 295 295 295 301 304 302 298
294 292 290 291 292 292 292 294 294 295 296 297 299 302 306 309 313 317 317 315 312 310 305 300 297 295 292 290 288 290 292 293 293 293 293 295 294 290 292 293 290 287 288 290 291 292 291 296 305 307 304 301
294 293 291 290 290 291 291 292 293 293 293 294 296 298 302 305 310 314 316 314 311 310 305 299 295 292 290 289 288 290 292 293 292 291 290 291 290 290 290 289 288 288 288 289 289 289 294 301 309 310 307 303
293 292 291 290 289 290 290 290 291 291 290 291 293 294 297 301 305 310 313 312 310 309 305 299 294 291 289 287 287 289 291 292 291 291 289 289 290 290 288 287 287 286 288 289 289 294 301 307 313 314 310 303
291 290 289 288 288 289 289 289 289 289 289 289 290 291 294 297 301 306 310 310 309 308 305 299 292 289 287 285 286 287 288 291 291 292 291 290 292 292 290 289 290 291 293 290 291 302 309 312 318 319 311 301
295 292 289 288 286 287 289 289 288 288 287 287 287 288 291 294 297 302 307 309 308 307 304 299 292 286 284 283 283 284 286 288 288 287 287 288 290 293 293 291 295 297 292 289 297 310 311 311 320 322 313 301
301 298 294 290 287 286 287 286 286 286 286 286 286 287 288 291 294 298 304 307 306 305 303 298 292 285 281 280 280 280 282 284 284 283 283 285 286 289 292 293 298 293 288 294 305 311 306 310 321 318 312 305
308 305 300 294 290 287 284 284 283 283 284 284 284 285 287 289 292 295 300 304 304 303 301 298 292 285 280 277 276 277 278 278 279 279 278 278 279 282 286 291 293 289 290 294 302 307 307 316 329 306 297 303
317 312 305 298 293 287 282 281 280 280 280 280 281 283 285 287 289 291 295 300 302 301 300 298 292 285 279 275 273 273 273 273 271 270 268 268 271 274 277 284 290 292 292 292 301 311 306 310 319 307 296 284
325 319 309 301 296 290 283 278 277 276 277 277 278 280 282 285 286 287 290 295 299 300 298 296 292 284 277 273 270 269 268 266 265 264 263 262 264 268 272 277 282 282 284 292 301 304 299 302 302 298 297 287
329 323 317 307 301 297 290 284 280 277 277 278 278 279 282 284 284 284 285 291 296 298 297 295 292 285 276 271 267 265 264 262 260 259 259 259 260 263 267 270 269 268 277 290 294 288 289 297 286 286 308 306
330 326 323 314 306 303 298 292 288 285 283 281 280 280 281 281 281 281 283 288 293 295 296 293 291 286 277 270 265 263 262 260 256 255 255 256 257 259 262 264 267 270 275 283 289 291 289 279 269 280 299 306
331 330 328 322 313 308 302 297 295 292 287 284 282 280 280 278 278 279 282 285 289 292 293 292 289 285 278 270 264 261 260 258 255 254 254 254 255 256 258 260 263 269 273 273 280 289 290 284 273 270 279 287
Height
1538 1538 1536 1534 1533 1531 1530 1529 1527 1526 1525 1524 1524 1523 1522 1521 1520 1519 1517 1516 1516 1515 1513 1512 1512 1510 1509 1508 1506 1505 1502 1501 1501 1500 1499 1499 1498 1497 1496 1495 1495 1496 1497 1496 1495 1495 1494 1494 1494 1495 1495 1496
1536 1536 1535 1534 1533 1531 1529 1528 1526 1525 1524 1523 1522 1521 1521 1520 1518 1517 1516 1515 1514 1513 1512 1510 1510 1509 1507 1506 1504 1502 1500 1499 1498 1497 1496 1496 1496 1495 1494 1494 1493 1493 1494 1494 1493 1492 1491 1491 1491 1492 1492 1492
1536 1535 1534 1533 1532 1530 1529 1527 1526 1524 1523 1522 1521 1520 1519 1518 1517 1515 1514 1513 1512 1511 1510 1508 1507 1506 1505 1504 1502 1501 1498 1497 1496 1495 1494 1493 1493 1493 1492 1492 1492 1491 1491 1491 1491 1490 1489 1489 1489 1489 1489 1489
1537 1535 1534 1532 1530 1529 1527 1526 1524 1523 1521 1520 1519 1518 1517 1516 1515 1513 1512 1511 1510 1509 1508 1507 1505 1504 1503 1502 1500 1499 1497 1495 1494 1493 1492 1491 1490 1490 1489 1489 1489 1489 1489 1488 1488 1488 1487 1487 1487 1486 1485 1486
1536 1534 1533 1530 1529 1527 1526 1524 1523 1521 1520 1519 1518 1516 1516 1514 1513 1512 1511 1510 1508 1507 1506 1505 1504 1503 1501 1500 1498 1497 1495 1493 1492 1491 1490 1489 1488 1487 1486 1487 1486 1486 1486 1486 1485 1485 1485 1485 1484 1483 1482 1482
1534 1532 1531 1529 1528 1527 1525 1523 1522 1520 1519 1518 1516 1515 1514 1513 1512 1510 1509 1508 1507 1506 1505 1503 1502 1500 1499 1498 1496 1495 1494 1492 1490 1489 1488 1487 1486 1485 1484 1484 1483 1483 1483 1484 1483 1483 1483 1482 1481 1481 1480 1479
1532 1531 1530 1529 1527 1526 1524 1522 1521 1519 1518 1516 1515 1514 1512 1511 1510 1509 1507 1506 1505 1504 1502 1501 1499 1498 1497 1495 1494 1493 1492 1490 1488 1487 1486 1485 1484 1483 1481 1481 1481 1480 1480 1481 1481 1480 1480 1480 1479 1478 1478 1477
1531 1530 1529 1528 1526 1525 1523 1522 1520 1519 1517 1515 1514 1512 1511 1510 1508 1507 1505 1504 1503 1502 1500 1499 1498 1496 1495 1493 1492 1491 1490 1488 1486 1485 1484 1482 1482 1481 1480 1479 1479 1479 1478 1477 1477 1477 1477 1477 1477 1476 1475 1474
1529 1528 1528 1526 1525 1524 1522 1521 1519 1518 1516 1514 1512 1511 1509 1508 1506 1505 1503 1502 1501 1500 1499 1497 1496 1495 1493 1492 1491 1490 1488 1487 1486 1484 1483 1481 1480 1480 1479 1477 1476 1477 1476 1475 1474 1474 1474 1474 1474 1473 1473 1472
1528 1527 1526 1525 1524 1522 1521 1520 1518 1517 1515 1513 1511 1510 1508 1506 1505 1503 1502 1500 1499 1498 1497 1496 1494 1493 1492 1491 1489 1488 1487 1486 1485 1483 1482 1481 1479 1478 1478 1476 1475 1474 1473 1473 1472 1471 1471 1471 1470 1470 1470 1469
1527 1525 1524 1523 1522 1520 1519 1518 1517 1515 1513 1512 1510 1508 1506 1505 1503 1502 1500 1499 1497 1496 1495 1494 1493 1492 1490 1489 1488 1487 1486 1485 1484 1482 1481 1480 1479 1477 1476 1475 1474 1472 1471 1470 1469 1469 1468 1468 1467 1467 1467 1467
1525 1523 1521 1520 1519 1518 1517 1516 1515 1513 1512 1510 1508 1507 1505 1503 1501 1500 1499 1497 1495 1494 1493 1492 1491 1490 1488 1487 1486 1485 1484 1483 1482 1481 1480 1479 1478 1476 1475 1474 1472 1471 1470 1468 1467 1466 1465 1465 1465 1464 1464 1465
1522 1520 1519 1518 1517 1516 1514 1513 1512 1511 1509 1508 1506 1505 1503 1501 1500 1498 1496 1495 1493 1492 1491 1490 1488 1487 1486 1485 1484 1483 1482 1482 1481 1480 1479 1478 1476 1475 1474 1473 1471 1470 1469 1467 1466 1464 1463 1463 1462 1461 1461 1462
1519 1518 1516 1515 1514 1513 1512 1511 1510 1509 1507 1505 1504 1503 1501 1500 1498 1496 1494 1493 1491 1490 1489 1488 1486 1485 1484 1483 1482 1481 1480 1480 1479 1478 1477 1476 1474 1473 1472 1471 1470 1468 1467 1466 1465 1463 1461 1460 1460 1459 1458 1458
1517 1515 1514 1512 1511 1510 1509 1508 1507 1506 1505 1503 1502 1501 1499 1498 1496 1494 1492 1491 1489 1488 1486 1485 1484 1483 1482 1481 1480 1479 1478 1477 1477 1476 1475 1474 1472 1471 1469 1468 1468 1466 1465 1464 1463 1462 1460 1458 1457 1456 1456 1455
1514 1512 1511 1510 1508 1507 1506 1505 1504 1503 1502 1501 1500 1498 1497 1495 1493 1491 1490 1488 1486 1485 1484 1483 1482 1481 1480 1479 1478 1477 1476 1475 1474 1473 1472 1471 1470 1469 1467 1466 1466 1465 1464 1462 1461 1460 1459 1457 1455 1454 1453 1452
1510 1509 1508 1506 1505 1504 1503 1502 1501 1500 1499 1498 1497 1496 1494 1492 1491 1489 1487 1486 1484 1483 1481 1480 1479 1478 1477 1476 1475 1474 1473 1472 1471 1470 1470 1469 1468 1467 1466 1465 1464 1463 1462 1461 1459 1458 1457 1455 1453 1452 1451 1450
1507 1505 1504 1503 1502 1500 1499 1498 1498 1497 1496 1495 1494 1493 1491 1489 1488 1486 1485 1483 1481 1480 1479 1478 1477 1476 1475 1474 1473 1472 1471 1470 1469 1468 1468 1467 1466 1465 1464 1463 1462 1461 1460 1459 1457 1456 1455 1453 1452 1451 1449 1448
1504 1502 1501 1499 1498 1497 1496 1495 1494 1493 1492 1492 1490 1489 1488 1486 1484 1483 1482 1480 1479 1477 1476 1475 1474 1473 1472 1471 1470 1469 1468 1468 1467 1466 1465 1464 1463 1462 1462 1461 1461 1459 1458 1457 1455 1454 1452 1451 1450 1449 1447 1446
1501 1499 1497 1495 1494 1493 1492 1491 1490 1489 1488 1488 1487 1486 1485 1483 1481 1480 1479 1477 1476 1474 1473 1472 1471 1470 1470 1469 1468 1467 1466 1465 1464 1463 1462 1462 1461 1460 1459 1458 1458 1457 1456 1455 1453 1452 1450 1449 1448 1447 1445 1443
1498 1496 1494 1492 1491 1489 1488 1487 1486 1485 1484 1484 1483 1482 1481 1480 1478 1477 1475 1474 1473 1472 1470 1469 1468 1468 1467 1466 1465 1464 1463 1463 1462 1461 1459 1459 1458 1457 1456 1456 1455 1454 1454 1453 1451 1450 1448 1447 1446 1445 1442 1441
1494 1493 1491 1489 1487 1486 1484 1483 1482 1481 1480 1479 1479 1478 1478 1477 1476 1474 1472 1471 1470 1469 1467 1466 1465 1465 1464 1463 1462 1461 1461 1460 1459 1458 1457 1456 1455 1455 1454 1453 1452 1452 1451 1450 1448 1447 1446 1445 1444 1442 1440 1438
1491 1489 1488 1486 1484 1482 1480 1479 1478 1477 1476 1475 1475 1474 1474 1473 1472 1471 1470 1468 1467 1466 1464 1463 1462 1462 1461 1460 1459 1458 1458 1457 1456 1455 1454 1453 1452 1452 1451 1450 1450 1449 1449 1448 1446 1444 1443 1443 1442 1440 1438 1436
1488 1486 1484 1483 1481 1479 1477 1475 1474 1473 1472 1471 1470 1470 1469 1469 1468 1468 1466 1465 1463 1463 1462 1461 1460 1459 1458 1457 1456 1455 1455 1454 1454 1452 1451 1450 1450 1449 1448 1448 1448 1447 1447 1446 1444 1443 1442 1441 1440 1438 1436 1435
1484 1483 1481 1480 1478 1476 1474 1473 1471 1469 1468 1466 1466 1465 1465 1464 1464 1464 1463 1461 1460 1459 1459 1458 1457 1456 1455 1454 1453 1453 1452 1452 1451 1450 1449 1448 1447 1447 1446 1446 1446 1446 1446 1444 1443 1442 1441 1440 1439 1437 1435 1434
1481 1479 1478 1476 1474 1473 1472 1470 1467 1465 1464 1462 1461 1461 1460 1460 1460 1460 1459 1458 1457 1456 1455 1454 1454 1453 1452 1451 1450 1450 1449 1449 1448 1447 1447 1446 1445 1445 1444 1444 1444 1444 1444 1443 1442 1441 1439 1438 1438 1436 1434 1433
1478 1476 1474 1473 1471 1470 1468 1467 1465 1462 1461 1459 1456 1456 1455 1456 1456 1456 1455 1454 1453 1452 1451 1451 1450 1449 1449 1448 1447 1447 1447 1446 1446 1445 1445 1444 1443 1443 1442 1442 1442 1443 1442 1442 1441 1440 1439 1438 1437 1435 1433 1432
1476 1474 1472 1470 1468 1467 1466 1464 1462 1459 1457 1455 1453 1452 1451 1451 1451 1452 1451 1450 1449 1448 1448 1447 1447 1446 1445 1445 1444 1444 1444 1443 1443 1442 1442 1442 1441 1441 1440 1440 1441 1441 1440 1440 1440 1439 1439 1438 1437 1435 1433 1431
1473 1471 1470 1467 1465 1464 1462 1460 1458 1456 1453 1452 1450 1449 1448 1447 1447 1447 1447 1446 1445 1444 1444 1443 1443 1442 1442 1441 1441 1441 1441 1440 1440 1439 1439 1439 1438 1438 1438 1438 1439 1439 1439 1438 1438 1438 1438 1438 1437 1435 1432 1430
1471 1469 1467 1465 1463 1460 1459 1456 1454 1452 1450 1448 1446 1445 1445 1444 1443 1442 1442 1442 1441 1440 1439 1439 1439 1439 1438 1438 1438 1437 1437 1437 1437 1436 1436 1436 1436 1436 1436 1436 1436 1437 1437 1437 1436 1435 1435 1436 1436 1434 1432 1431
1469 1466 1464 1462 1460 1458 1456 1453 1450 1449 1447 1444 1442 1441 1440 1439 1438 1437 1438 1437 1436 1435 1435 1435 1435 1434 1434 1434 1434 1434 1434 1433 1433 1433 1433 1433 1433 1433 1433 1433 1433 1434 1435 1435 1434 1433 1432 1433 1433 1433 1431 1430